DEIMOS-2

Last updated on Fri Oct 04 2024 00:02:25 GMT+0000 (Coordinated Universal Time)

1 40013U 14033D 24277.56578060 .00008823 00000+0 92443-3 0 9993 2 40013 97.6630 160.9433 0001234 99.7937 260.3420 14.89795651545029
UTC large
Height (km)
Speed (km/s)
/
Latitude / Longitude
Inclination (degrees)
Orbital Period (minutes)
Azimuth
Elevation
Range (km)
Doppler Factor

Next 0 passes for location: London (51.5072 / 0.1276)

Sorry there are no passes over London.